Location: Strada George Coșbuc
(47.6577°N, 23.5639°E)
Time: 22:26:26
(UTC+03:00)

ISS - Pass Details

Date: 10 September 2017
Orbit: 401 x 407 km, 51.6° (Epoch: 25 September)

Event Time Altitude Azimuth Distance (km) Brightness Sun altitude
Exits shadow 05:51:52 14° 284° (WNW) 1,252 -1.8 -11.3°
Maximum altitude 05:54:27 42° 353° (N) 602 -2.9 -10.9°
Drops below altitude 10° 05:57:37 10° 66° (ENE) 1,475 0.6 -10.4°
Sets 05:59:46 0° 74° (ENE) 2,336 2.4 -10.1°
